Location: Asbacherhof
(48.8543°N, 10.7903°E)
Time: 22:42:30
(UTC+00:00)

Cosmos 2058 Rocket - Pass Details

Date: 26 May 2022
Orbit: 609 x 640 km, 82.5° (Epoch: 26 June)

Event Time Altitude Azimuth Distance (km) Brightness Sun altitude
Rises 02:03:28 0° 355° (N) 2,908 7.3 -10.5°
Reaches altitude 10° 02:05:49 10° 3° (N) 1,992 6.5 -10.2°
Maximum altitude 02:09:59 40° 74° (ENE) 910 4.5 -9.8°
Drops below altitude 10° 02:14:05 10° 145° (SE) 1,964 5.5 -9.4°
Sets 02:16:24 0° 152° (SSE) 2,861 6.3 -9.1°
